Regional Weather Roundup
Issued by NWS

Home | Current Version | Previous Version | Graphics & Text | Print | Product List | Glossary On
Versions: 1 2 3 4 5 6 7 8 9 10 11 12 13 14 15 16 17 18 19 20 21 22 23 24 25 26 27 28 29 30 31 32 33 34 35 36 37 38 39 40 41 42 43 44 45 46 47 48 49 50
831
ASUS44 KLIX 250110
RWRLA
LOUISIANA WEATHER ROUNDUP
NATIONAL WEATHER SERVICE NEW ORLEANS LA
800 PM CDT THU JUL 24 2014

NOTE: "FAIR" INDICATES FEW OR NO CLOUDS BELOW 12,000 FEET WITH NO
      SIGNIFICANT WEATHER AND/OR OBSTRUCTIONS TO VISIBILITY.
      SKY/WX - SKY CONDITION AND SIGNIFICANT WEATHER.
      TMP - AIR TEMPERATURE.    DP   - DEWPOINT TEMPERATURE.
      RH  - RELATIVE HUMIDITY.  PRES - PRESSURE.
      HX  - HEAT INDEX.         WCI  - WIND CHILL INDEX.

*  THESE STATIONS ARE NOT NWS OR FAA STATIONS AND ARE NOT UNDER
   NWS QUALITY CONTROL.

LAZ040-048-061>063-065-066-069-250200-
SOUTHEAST LOUISIANA

CITY           SKY/WX    TMP DP  RH WIND       PRES   REMARKS
N.O. AUDUBON     N/A     84  76  76 MISG        N/A
N.O. INTL ARPT PTCLDY    83  75  77 S7        29.94R
N.O. LAKEFRONT CLEAR     86  68  54 CALM      29.95R
N.O. DOWNTOWN* FAIR      86  70  58 S3        29.95R
SLIDELL        CLEAR     82  76  81 CALM      29.94R
BATON ROUGE    PTCLDY    80  72  76 CALM      29.94S
BOOTHVILLE     PTCLDY    82  75  79 SW8       29.96R
BELLE CHASSE   MOCLDY    81  74  79 SW3       29.94R
BOGALUSA*      FAIR      84  74  72 CALM      29.95R
GALLIANO*      NOT AVBL
NEW ROADS*     FAIR      85  75  73 CALM      29.94R
GONZALES*      FAIR      82  78  87 SW3       29.94R
HAMMOND*       CLOUDY    86  72  62 CALM      29.96R
HOUMA*         PTCLDY    77  70  79 SW5       29.95R
PORT FOURCHON* CLOUDY    84  77  79 W7        29.98R

$$

LAZ041-044-053-054-250200-
SOUTHWEST LOUISIANA

CITY           SKY/WX    TMP DP  RH WIND       PRES   REMARKS
LAKE CHARLES   CLEAR     82  76  81 SE9       29.94R
LAFAYETTE      CLEAR     83  75  77 CALM      29.94S
PATTERSON      PTCLDY    81  73  78 CALM      29.99S
SALT POINT       N/A     86  76  71 CALM      29.95R HX  96
NEW IBERIA     PTCLDY    82  75  79 CALM      29.95R
CHENAULT AIRPK CLEAR     82  75  78 SE6       29.95R

$$

LAZ027-028-250200-
CENTRAL LOUISIANA

CITY           SKY/WX    TMP DP  RH WIND       PRES   REMARKS
FORT POLK      CLEAR     84  72  67 N5        29.95R
ALEXANDRIA INT CLEAR     85  73  67 NW3       29.93R
ALEXANDRIA     CLEAR     83  76  79 CALM      29.94S

$$

LAZ001-002-250200-
NORTHWEST LOUISIANA

CITY           SKY/WX    TMP DP  RH WIND       PRES   REMARKS
SHREVEPORT     PTCLDY    83  72  69 NW6       29.96S
BARKSDALE AFB  CLEAR     83  72  70 N3        29.96S
DTN SHREVEPORT CLEAR     83  71  67 CALM      29.96S

$$

LAZ014-016-250200-
NORTHEAST LOUISIANA

CITY           SKY/WX    TMP DP  RH WIND       PRES   REMARKS
MONROE         CLEAR     84  74  71 CALM      29.96R
TALLULAH       CLEAR     82  74  76 N6        29.95R

$$




USA.gov is the U.S. government's official web portal to all federal, state and local government web resources and services.